Location: Unspecified
(56.5167°N, 0.0000°E)
Time: 19:58:26
(UTC+02:00)

Cosmos 1674 - Visible Passes

Search period start: 31 May 2016 00:00
Search period end: 10 June 2016 00:00
Orbit: 501 x 526 km, 82.5° (Epoch: 31 May)

Date Brightness Start Highest point End Pass type
(mag) Time Alt. Az. Time Alt. Az. Time Alt. Az.
31 May 4.4 01:34:34 12° SE 01:37:12 23° E 01:40:13 10° NE visible
31 May 3.4 03:09:32 13° SW 03:12:40 43° WNW 03:16:19 10° N visible
01 Jun 4.6 01:18:53 10° SE 01:21:32 20° E 01:24:19 10° NE visible
01 Jun 3.2 02:53:51 14° SSW 02:56:54 51° WNW 03:00:37 10° N visible
02 Jun 4.7 01:03:24 10° SE 01:05:53 17° E 01:08:21 10° NE visible
02 Jun 2.9 02:38:09 15° SSW 02:41:07 61° WNW 02:44:55 10° N visible
02 Jun 5.3 04:17:00 10° WNW 04:17:40 10° NW 04:18:21 10° NW visible
03 Jun 4.9 00:48:08 10° ESE 00:50:14 14° E 00:52:20 10° NE visible
03 Jun 2.7 02:22:26 16° SSW 02:25:22 74° WNW 02:29:10 10° N visible
03 Jun 5.2 04:00:18 10° WNW 04:01:49 12° NW 04:03:18 10° NNW visible
04 Jun 5.0 00:32:59 10° ESE 00:34:34 12° E 00:36:12 10° NE visible
04 Jun 2.6 02:06:43 16° SSW 02:09:37 88° WNW 02:13:27 10° NNE visible
04 Jun 5.1 03:43:58 10° W 03:45:57 14° WNW 03:47:56 10° NNW visible
05 Jun 5.1 00:18:11 10° E 00:18:56 10° E 00:19:42 10° ENE visible
05 Jun 2.6 01:50:59 16° S 01:53:52 78° E 01:57:42 10° NNE visible
05 Jun 5.0 03:27:45 10° W 03:30:06 16° WNW 03:32:28 10° NNW visible
06 Jun 2.8 01:35:14 16° S 01:38:08 65° E 01:41:56 10° NNE visible
06 Jun 4.9 03:11:37 10° WSW 03:14:15 18° WNW 03:16:55 10° NNW visible
07 Jun 3.0 01:19:28 15° S 01:22:25 54° E 01:26:09 10° NNE visible
07 Jun 4.7 02:55:32 10° WSW 02:58:25 20° WNW 03:01:20 10° NNW visible
08 Jun 3.2 01:03:41 14° SSE 01:06:41 45° E 01:10:21 10° NNE visible
08 Jun 4.6 02:39:29 10° WSW 02:42:35 23° WNW 02:45:42 10° N visible
09 Jun 3.5 00:47:53 13° SSE 00:50:58 38° E 00:54:32 10° NNE visible
09 Jun 4.4 02:23:30 10° SW 02:26:46 27° WNW 02:30:04 10° N visible
